Home   Weather   Fairfield   Past weeks
Flag for USA

Past Weather in Fairfield, Vermont, USA — Yesterday and Last 2 Weeks

Now
41 °F

Clear.


Feels Like: 39 °F
Forecast: 64 / 37 °F
Wind: 3 mph from East

Location: Burlington International Airport
Current Time: Sep 22, 2020 at 2:09:46 am
Latest Report: Sep 22, 2020 at 12:54 am
Visibility: 10 mi
Pressure30.38 "Hg
Humidity: 86%
Dew Point: 37 °F
Location of FairfieldLocation

Past Weather in Fairfield — Graph

°F

Fairfield Temperature Yesterday

Maximum temperature yesterday: 63 °F (at 2:54 pm)
Minimum temperature yesterday: 34 °F (at 6:54 am)
Average temperature yesterday: 48 °F

High & Low Weather Summary for the Past Weeks

 TemperatureHumidityPressure
High82 °F (Sep 10, 11:54 am)93% (Sep 10, 4:54 am)30.65 "Hg (Sep 10, 4:54 am)
Low34 °F (Sep 21, 6:54 am)21% (Sep 21, 3:54 pm)29.88 "Hg (Sep 7, 4:54 pm)
Average59 °F65%30.22 "Hg
* Reported Sep 7 12:54 am — Sep 22 12:54 am, Fairfield. Weather by CustomWeather, © 2020

Note: Actual official high and low records may vary slightly from our data, if they occured in-between our weather recording intervals... More about our weather records

Fairfield Weather History for the Previous 24 Hours

Scroll right to see more
 ConditionsComfort  
Time TempWeatherWind HumidityBarometerVisibility
12:54 am
Tue, Sep 22
41 °FClear.3 mph86%30.38 "Hg10 mi
11:54 pm
Mon, Sep 21
43 °FClear.3 mph79%30.40 "Hg10 mi
10:54 pm44 °FClear.3 mph79%30.42 "Hg10 mi
9:54 pm44 °FClear.No wind79%30.44 "Hg10 mi
8:54 pm48 °FClear.No wind68%30.45 "Hg10 mi
7:54 pm50 °FClear.No wind57%30.46 "Hg10 mi
6:54 pm56 °FClear.3 mph42%30.47 "Hg10 mi
5:54 pm62 °FSunny.5 mph27%30.47 "Hg10 mi
4:54 pm63 °FSunny.3 mph25%30.49 "Hg10 mi
3:54 pm63 °FSunny.3 mph21%30.51 "Hg10 mi
2:54 pm63 °FSunny.No wind26%30.53 "Hg10 mi
1:54 pm62 °FSunny.8 mph30%30.57 "Hg10 mi
12:54 pm60 °FSunny.6 mph35%30.60 "Hg10 mi
11:54 am58 °FSunny.3 mph39%30.62 "Hg10 mi
10:54 am54 °FSunny.No wind47%30.65 "Hg10 mi
9:54 am49 °FSunny.No wind59%30.65 "Hg10 mi
8:54 am42 °FSunny.No wind76%30.64 "Hg10 mi
7:54 am37 °FPassing clouds.3 mph82%30.65 "Hg10 mi
6:54 am34 °FSunny.3 mph85%30.64 "Hg10 mi
5:54 am35 °FClear.3 mph85%30.62 "Hg10 mi
4:54 am36 °FClear.No wind85%30.62 "Hg10 mi
3:54 am36 °FClear.3 mph85%30.62 "Hg10 mi
2:54 am36 °FClear.No wind89%30.61 "Hg10 mi
Weather by CustomWeather, © 2020

See weather overview